Regional Weather Roundup
Issued by NWS

Home | Current Version | Previous Version | Text Only | Print | Product List | Glossary On
Versions: 1 2 3 4 5 6 7 8 9 10 11 12 13 14 15 16 17 18 19 20 21 22 23 24 25 26 27 28 29 30 31 32 33 34 35 36 37 38 39 40 41 42 43 44 45 46 47 48 49 50
320
ASUS42 KKEY 300210
RWRKEY

FLORIDA REGIONAL WEATHER ROUNDUP FOR THE FLORIDA KEYS
NATIONAL WEATHER SERVICE KEY WEST FLORIDA
1000 PM EDT WED MAR 29 2017

...SOUTH FLORIDA AND THE KEYS...

CITY           SKY/WX    TMP DP  RH WIND       PRES   REMARKS
FORT MYERS     MOCLDY    76  67  73 NW3       30.03R
SW REGIONAL AP CLEAR     73  64  73 CALM      30.03R
NAPLES         CLOUDY    74  69  85 CALM      30.03R
MIAMI          PTCLDY    75  63  66 SE6       30.04R
WEST KENDALL   CLEAR     73  62  68 E3        30.04R
HOMESTEAD      CLEAR     70  66  86 E3        30.03R
MARATHON       CLEAR     77  66  68 E6        30.03R
BOCA CHICA NAS PTCLDY    75  65  70 E9        30.02R
KEY WEST INTL  CLEAR     76  67  73 E6        30.02R

...INTERNATIONAL WEATHER...

CITY           SKY/WX    TMP DP  RH WIND       PRES   REMARKS
NASSAU BAHAMAS PTCLDY    73  64  73 CALM      30.05R
CANCUN MEXICO  PTCLDY    79  70  73 S15       29.91R
COZUMEL MEXICO PTCLDY    79  70  73 SE12      29.89R

ADJACENT COASTAL WATERS...

STATION/POSITION TIME  SKY/WX   TEMP    WIND        PRES    WAVE
                                AIR SEA DIR/SP/G            HT/PER
                 (UTC)          (F)     (DEG/KT/KT) (MB)    (FT/S)
PULASKI SHOAL LI 0100            76     100/  7/  8 1016.0R
SAND KEY         0050            77     110/ 10/ 12 1016.5R
LONG KEY         0100            76 79  110/  8/  9 1016.7R
MOLASSES REEF    0100            76 79   50/  6/  9 1016.9R
FOWEY ROCKS      0100            76 77   90/  7/  8 1017.5R
Buoy 42097       0130                                 N/A     2/ 6

$$




USA.gov is the U.S. government's official web portal to all federal, state and local government web resources and services.